Theta_e
326 325 323 322 321 317 317 315 314 316 318 320 319 322 321 322 322 322 321 326 327 328 329 327 326 324 324 323 322 319 317 313 311 309 309 311 310 310 308 306 305 304 303
329 326 322 322 322 320 319 321 320 319 321 321 322 325 323 321 323 323 323 328 327 328 328 327 326 325 324 323 321 319 315 313 311 310 313 313 311 310 309 307 305 304 304
328 328 325 324 324 324 323 323 324 323 324 326 326 327 323 321 320 322 326 327 328 328 328 327 327 325 324 322 320 318 315 313 310 310 312 311 311 308 309 307 306 305 304
329 329 329 327 326 326 326 326 326 325 324 327 328 328 325 324 322 322 327 327 326 328 328 327 326 324 323 322 319 317 314 313 312 311 311 309 308 306 305 308 306 306 305
327 330 329 330 328 328 328 327 326 326 327 327 329 328 327 323 323 322 324 326 328 327 327 327 325 324 322 320 319 316 314 312 311 310 309 309 309 308 307 304 306 306 305
327 327 328 329 329 329 329 328 328 327 329 328 326 329 328 326 326 328 328 328 328 327 327 326 324 322 321 319 318 315 311 310 310 309 308 306 306 306 307 306 305 304 303
327 328 327 326 329 330 330 330 331 330 330 330 329 329 330 329 327 328 328 327 323 325 325 324 323 321 320 319 315 313 309 309 307 307 303 305 304 304 304 303 303 302 302
328 328 328 327 326 327 331 331 331 330 330 330 331 330 324 330 329 328 329 327 323 320 324 323 321 320 318 315 311 310 308 308 307 300 304 303 303 303 303 302 302 299 300
329 328 328 329 329 328 328 330 331 331 330 330 331 330 326 325 329 331 329 326 324 321 323 321 320 317 316 313 309 307 306 306 301 303 301 302 302 302 302 301 301 300 298
326 327 328 328 329 330 329 329 330 330 330 330 332 331 326 323 329 329 328 326 326 323 322 320 318 316 313 309 306 306 306 301 301 301 302 301 301 302 302 300 299 299 299
327 326 327 327 329 330 331 332 332 332 332 332 333 332 330 327 329 329 327 325 325 322 320 318 315 312 309 306 305 305 302 299 300 300 300 301 300 301 300 299 299 298 298
324 328 328 328 327 328 331 336 336 335 335 333 333 332 331 330 327 326 325 325 323 320 318 315 310 307 306 305 305 302 300 300 300 300 300 300 300 300 300 300 299 298 298
322 326 329 330 329 329 329 332 335 336 334 334 333 333 331 328 327 325 324 323 320 318 314 310 308 306 305 305 303 299 299 300 300 300 299 299 299 300 300 300 299 298 298
322 323 328 330 331 331 331 332 333 334 334 333 332 330 328 326 323 321 320 318 317 315 312 309 306 305 305 303 300 299 299 299 298 299 298 298 298 299 299 299 298 298 298
320 322 325 330 332 332 332 332 332 331 331 330 327 325 322 320 318 315 314 313 311 309 307 306 305 304 304 301 299 299 299 298 298 298 298 298 297 298 298 298 298 297 297
320 323 324 330 332 331 332 330 328 327 327 323 321 320 319 318 316 314 311 308 306 305 303 302 302 301 299 299 299 298 298 298 299 299 297 297 297 297 296 296 296 295 296
324 325 327 331 331 331 328 327 325 324 321 319 317 315 312 309 308 306 305 305 304 302 301 300 299 299 299 299 298 297 297 297 297 297 296 296 295 295 294 294 294 294 294
324 326 329 329 328 326 325 322 320 318 316 314 311 309 307 305 304 303 302 301 301 300 300 300 300 300 299 298 298 298 297 295 295 295 294 294 293 293 294 293 293 292 292
324 323 323 324 323 321 319 317 315 313 311 310 309 307 306 305 304 303 302 302 302 301 301 300 300 299 299 299 296 295 294 293 293 293 292 292 292 292 291 290 291 291 291
320 320 319 318 317 316 315 314 312 311 310 309 308 307 306 305 304 303 302 302 301 301 300 299 299 297 295 294 293 292 292 291 291 290 289 289 288 289 289 288 287 288 289
317 316 316 315 314 313 312 312 310 309 308 307 306 305 304 303 302 301 301 300 299 298 296 295 295 295 294 292 291 290 288 286 285 285 285 285 284 284 282 282 282 284 286
315 314 314 313 313 312 311 310 308 307 305 304 303 302 302 300 299 297 296 295 295 295 295 295 294 293 291 289 288 287 286 285 282 282 282 282 282 280 282 283 283 283 285
313 313 313 312 311 311 309 308 306 304 303 302 300 296 296 296 296 296 295 295 294 292 291 290 290 289 288 288 286 285 282 279 280 280 281 279 279 283 285 286 286 286 285
312 312 312 311 310 309 308 305 304 303 300 297 296 295 295 294 293 292 291 291 290 289 288 288 287 287 286 285 283 279 277 278 278 278 278 279 282 283 283 284 284 285 285
312 311 310 309 308 307 304 303 302 299 298 297 295 293 292 291 290 288 288 287 284 284 285 285 284 283 283 280 278 277 277 277 277 278 279 280 282 281 281 280 281 282 282
311 310 309 307 305 303 301 299 298 297 296 293 291 290 289 289 289 287 284 283 283 282 280 279 279 279 279 277 276 276 277 277 278 278 279 280 279 279 279 279 279 279 279
Wind_Speed
20 21 27 31 27 31 28 29 31 32 31 28 29 27 24 21 26 23 26 26 25 22 21 20 20 17 16 16 17 14 12 13 7 7 11 17 20 16 14 12 11 9 10
17 20 29 31 32 34 34 33 33 33 33 32 33 25 24 24 25 24 25 21 21 21 21 22 21 19 18 18 17 17 15 15 15 7 4 2 4 16 16 15 16 14 12
20 18 24 28 31 33 35 35 36 35 34 28 27 24 24 23 25 23 20 23 20 20 20 21 18 19 20 19 20 20 18 18 13 12 4 1 3 3 16 19 16 12 14
21 20 25 31 34 35 37 35 33 34 36 33 29 24 22 20 23 22 22 25 23 22 21 22 21 18 20 17 21 20 22 17 12 14 11 8 4 0 4 10 19 18 14
20 23 23 30 36 34 37 36 37 38 35 30 26 29 23 22 24 30 27 26 21 20 23 20 21 22 19 19 19 21 21 16 11 9 5 7 8 11 9 4 9 15 19
21 21 30 30 30 32 33 37 36 36 33 35 32 24 22 22 19 22 29 25 20 20 24 23 22 23 22 22 21 21 19 16 16 10 10 8 4 6 5 3 6 9 12
18 19 22 24 30 32 35 32 32 29 30 33 36 32 20 23 26 21 14 17 10 14 23 24 23 25 22 21 17 17 18 18 13 10 8 4 6 4 7 12 10 10 18
17 19 20 27 30 33 34 34 33 34 30 32 29 33 34 31 30 26 26 22 19 35 29 27 25 25 24 21 20 21 18 15 12 12 7 8 8 6 9 11 11 5 11
14 18 19 28 33 35 37 38 34 32 32 35 39 42 37 27 26 22 25 27 25 26 30 24 27 25 25 24 23 22 18 14 12 11 9 6 8 11 16 17 17 12 2
4 8 17 22 31 36 41 42 41 38 36 34 37 40 39 35 23 17 18 20 22 25 27 28 27 27 24 24 25 22 17 14 12 10 7 4 13 13 16 16 17 17 17
7 2 5 4 23 30 39 42 37 33 29 29 29 27 30 26 20 18 16 18 20 27 26 24 22 24 25 26 25 17 16 16 14 8 1 11 19 18 17 19 19 21 19
1 8 2 2 4 3 8 31 30 29 27 30 29 29 29 22 19 19 18 18 23 23 21 17 18 22 26 25 20 19 17 19 16 13 13 16 14 18 20 20 23 23 24
6 6 8 5 5 3 5 10 16 16 19 26 27 23 25 19 19 18 17 18 18 15 14 18 21 22 22 20 14 16 21 21 17 17 15 16 17 21 22 24 23 23 26
8 5 9 7 10 12 10 10 11 12 13 22 20 24 21 18 14 14 14 14 15 16 19 16 18 20 20 19 19 23 23 22 19 16 16 19 19 23 24 25 26 28 30
4 5 6 10 13 11 13 13 14 12 18 25 23 20 16 13 11 10 10 10 11 12 14 16 18 20 17 18 22 21 21 18 15 17 19 21 28 24 26 28 29 28 29
6 6 6 12 14 16 16 16 16 13 15 24 23 23 21 18 15 16 16 16 14 15 16 16 16 16 18 18 15 13 11 13 14 17 23 26 21 24 24 25 28 31 35
5 4 5 9 16 15 20 17 17 16 18 18 19 19 19 18 16 17 16 17 16 16 13 12 12 12 9 7 9 9 13 15 18 20 20 21 20 24 27 28 28 29 30
8 5 5 11 18 19 19 20 19 19 20 20 19 18 18 18 17 17 17 15 15 13 12 10 7 7 9 7 7 8 10 11 13 16 18 21 24 24 25 29 33 33 31
8 8 10 13 17 20 22 21 22 21 21 21 20 19 19 20 19 18 17 15 14 12 13 11 6 4 3 5 4 5 5 9 12 15 17 20 23 22 24 33 31 30 32
14 15 17 18 19 20 22 22 22 22 20 21 21 20 19 19 18 17 15 14 13 10 8 7 7 6 3 8 4 2 3 6 12 18 23 25 27 27 27 29 26 27 29
17 20 19 18 20 22 23 21 20 19 21 21 20 19 19 18 16 14 13 13 11 13 10 7 6 4 3 6 2 5 7 11 16 18 19 21 24 30 35 36 39 35 34
19 22 19 19 21 21 21 21 20 22 22 21 20 18 18 16 17 15 12 11 11 10 9 8 6 6 6 3 4 5 8 13 16 18 21 24 29 37 36 34 34 34 34
19 21 20 19 19 20 20 21 21 22 21 20 19 18 16 15 14 14 11 11 11 9 9 6 5 5 5 3 7 11 14 15 16 19 22 29 31 31 35 35 35 32 30
18 20 21 19 17 18 19 20 20 20 19 19 18 17 16 14 12 12 9 11 10 8 6 4 4 4 3 6 10 15 18 18 20 22 26 26 25 23 27 26 27 26 25
19 20 19 18 19 20 21 21 20 20 19 19 16 14 14 14 13 14 12 8 8 6 5 6 5 3 2 5 11 14 17 18 20 22 23 22 19 21 23 26 26 28 29
19 18 18 19 19 19 19 18 18 18 19 18 17 15 13 11 13 12 10 7 5 5 3 3 2 1 2 8 13 14 15 18 15 18 18 18 19 20 22 24 26 27 29
Wind_Direction
152 163 152 158 163 163 171 173 176 182 190 193 195 219 205 209 215 214 212 211 206 207 209 208 207 204 201 207 203 206 203 214 219 229 250 243 232 220 221 226 221 226 235
154 165 161 166 172 173 180 182 186 193 197 199 206 213 204 209 216 221 214 204 205 202 210 211 206 208 205 210 203 199 205 211 208 208 277 287 206 218 229 221 222 223 232
169 174 172 182 179 180 186 190 190 196 201 207 208 213 203 206 213 216 214 207 211 215 211 219 215 210 205 213 205 201 207 212 200 210 213 276 238 18 220 215 218 223 222
172 182 185 187 191 192 191 196 191 196 202 209 210 210 199 205 206 213 209 219 222 218 224 218 218 214 211 218 205 209 214 228 212 195 217 243 259 305 344 202 219 223 221
180 179 190 192 191 192 189 194 197 200 203 207 210 220 198 208 217 209 208 200 204 222 232 230 222 215 211 211 216 207 214 224 211 183 185 236 232 248 217 262 296 232 229
182 180 187 193 195 195 191 196 202 203 203 199 215 224 223 211 233 208 210 205 205 215 223 229 232 218 216 214 219 204 205 210 205 210 226 233 294 294 280 267 271 303 307
183 181 182 188 193 196 196 201 203 210 209 199 204 212 207 225 228 240 217 196 222 233 230 221 223 218 217 217 214 205 201 209 214 238 218 221 274 265 326 308 294 300 282
181 184 186 187 193 197 195 197 200 205 209 208 203 195 221 226 222 227 234 217 214 233 232 215 214 218 212 212 214 207 202 209 227 215 203 226 240 256 264 276 288 276 280
188 188 191 189 192 193 196 196 200 204 209 205 202 201 210 230 240 225 233 234 231 224 217 211 217 219 216 213 215 203 205 222 218 209 221 222 245 262 266 258 263 274 259
307 220 200 196 196 194 195 194 196 199 203 210 204 203 210 225 227 219 225 229 229 223 223 224 224 225 220 210 210 212 215 200 197 207 192 269 293 260 264 268 268 261 260
138 322 325 245 207 196 187 192 190 198 198 202 191 197 202 209 217 216 220 222 225 217 216 220 225 220 208 207 211 211 196 184 185 174 289 288 292 270 268 268 270 267 262
110 146 196 29 340 335 169 175 185 194 198 194 194 202 220 214 204 218 216 219 212 210 217 227 213 202 203 202 207 197 200 188 176 191 272 272 279 275 275 269 267 266 267
231 152 142 155 164 189 218 154 174 199 194 196 181 192 198 189 189 196 205 202 201 209 204 200 197 200 199 203 210 196 198 186 197 239 246 266 281 277 276 274 267 266 267
175 202 154 166 158 166 166 161 173 196 179 181 171 164 168 180 171 171 180 187 191 191 193 196 196 200 198 197 198 197 199 210 228 248 248 277 282 279 274 276 273 269 266
225 208 198 153 142 136 134 143 109 116 114 127 138 145 148 159 157 157 165 174 173 175 183 184 189 190 200 204 198 207 219 220 244 242 264 285 294 276 274 274 274 277 279
215 217 195 158 140 157 143 129 130 137 128 114 120 127 131 137 149 149 145 138 152 159 167 171 180 185 188 202 215 211 237 241 242 265 284 294 289 286 284 283 281 279 271
128 187 214 117 129 136 131 139 136 140 125 118 122 125 129 127 128 133 133 136 142 146 148 153 166 183 189 211 216 237 248 277 286 292 292 295 291 293 296 296 295 292 289
153 169 122 126 124 134 139 139 140 134 133 129 128 128 132 132 131 132 128 127 132 134 132 134 147 162 160 177 229 259 274 286 289 290 294 301 303 303 304 305 301 298 294
133 138 142 138 136 134 143 143 140 137 134 137 139 141 142 139 135 129 129 132 134 138 136 148 159 179 232 248 246 255 278 291 300 305 306 307 309 312 312 317 315 310 296
149 152 147 141 143 147 147 145 142 144 141 142 141 141 139 136 130 137 138 139 144 146 144 154 143 135 90 122 149 189 273 307 305 302 303 304 306 313 314 316 319 309 302
150 149 155 154 153 153 151 148 143 140 140 138 135 132 130 132 141 145 145 145 147 135 115 115 111 100 115 102 11 331 333 334 327 324 319 315 311 306 305 302 301 294 296
161 162 161 157 157 157 152 145 140 135 131 130 132 136 142 143 142 136 132 132 130 123 132 128 116 105 102 34 332 325 327 326 328 323 317 315 310 314 316 312 306 298 296
164 171 159 154 156 157 152 142 138 141 141 147 143 138 138 136 139 137 142 127 124 114 110 116 123 111 85 36 318 320 327 334 329 322 314 312 321 327 326 320 318 312 297
179 168 159 155 150 148 145 144 148 152 147 138 138 139 133 130 129 123 117 116 105 101 106 103 85 53 45 325 325 334 339 335 328 323 322 325 325 328 328 332 333 334 333
175 167 161 156 153 155 142 151 156 152 146 140 135 128 133 135 119 108 98 120 108 129 104 102 76 65 24 335 332 337 333 328 321 322 324 320 328 336 338 337 334 332 332
163 158 158 153 148 141 142 144 152 153 142 128 123 131 129 129 128 129 119 104 80 66 74 101 67 116 301 319 332 332 329 323 323 319 321 332 335 335 335 333 332 334 337